Location: Brno
(49.2000°N, 16.6330°E)
Time: 13:14:19
(UTC+01:00)

Cosmos 2227 - Visible Passes

Search period start: 23 February 2018 00:00
Search period end: 05 March 2018 00:00
Orbit: 835 x 861 km, 71.0° (Epoch: 22 February)

Date Brightness Start Highest point End Pass type
(mag) Time Alt. Az. Time Alt. Az. Time Alt. Az.
23 Feb 7.0 02:02:04 10° N 02:04:25 12° NNE 02:06:45 10° NE visible
23 Feb 5.4 03:44:58 10° NNW 03:50:18 40° NE 03:55:34 10° ESE visible
23 Feb 4.6 05:29:16 10° NW 05:34:31 40° WSW 05:39:42 10° S visible
23 Feb 4.7 18:41:58 10° S 18:47:06 35° ESE 18:52:14 10° NE visible
23 Feb 5.1 20:25:43 10° SW 20:31:11 46° NW 20:36:19 12° NNE visible
23 Feb 6.9 22:14:07 10° WNW 22:16:55 14° NNW 22:18:26 13° NNW visible
24 Feb 7.0 01:49:37 11° N 01:51:17 12° NNE 01:53:33 10° NE visible
24 Feb 5.4 03:31:51 10° NNW 03:37:11 40° NE 03:42:26 10° ESE visible
24 Feb 4.5 05:16:08 10° NW 05:21:24 41° WSW 05:26:36 10° S visible
24 Feb 4.8 18:28:53 10° S 18:34:00 35° ESE 18:39:06 10° NE visible
24 Feb 5.1 20:12:35 10° SW 20:18:05 46° NW 20:23:33 10° NNE visible
24 Feb 6.9 22:00:56 10° WNW 22:03:47 14° NNW 22:06:39 10° N visible
25 Feb 7.0 01:37:42 12° NNE 01:38:08 12° NNE 01:40:23 10° NE visible
25 Feb 5.4 03:19:45 15° NNW 03:24:03 39° NE 03:29:18 10° ESE visible
25 Feb 4.5 05:03:02 10° NW 05:08:18 42° WSW 05:13:30 10° S visible
25 Feb 4.8 18:15:48 10° S 18:20:54 34° ESE 18:25:59 10° NE visible
25 Feb 5.1 19:59:27 10° SW 20:04:57 47° NW 20:10:27 10° NNE visible
25 Feb 6.9 21:47:46 10° WNW 21:50:39 14° NNW 21:53:33 10° N visible
26 Feb 7.1 01:26:37 11° NE 01:26:37 11° NE 01:27:11 10° NE visible
26 Feb 5.4 03:08:43 28° N 03:10:56 39° NE 03:16:10 10° ESE visible
26 Feb 4.5 04:50:48 15° NW 04:55:11 42° WSW 05:00:25 10° S visible
26 Feb 4.9 18:02:43 10° SSE 18:07:47 34° ESE 18:12:51 10° NE visible
26 Feb 5.1 19:46:19 10° SW 19:51:50 47° NW 19:57:20 10° NNE visible
26 Feb 6.9 21:34:36 10° WNW 21:37:31 14° NNW 21:40:27 10° N visible
27 Feb7.301:16:09ENE01:16:09ENE01:08:06Nvisible
27 Feb 5.4 02:58:17 38° ENE 02:58:17 38° ENE 03:03:01 10° ESE visible
27 Feb 4.4 04:40:24 34° WNW 04:42:04 43° WSW 04:47:19 10° S visible
27 Feb 5.1 19:33:12 10° SW 19:38:43 48° NW 19:44:14 10° NNE visible
27 Feb 6.9 21:21:26 10° WNW 21:24:23 14° NNW 21:27:21 10° N visible
28 Feb 6.2 02:48:03 20° ESE 02:48:03 20° ESE 02:49:53 10° ESE visible
28 Feb 4.7 04:30:10 38° SW 04:30:10 38° SW 04:34:13 10° S visible
28 Feb 5.1 19:20:04 10° SW 19:25:35 49° NW 19:31:07 10° NNE visible
28 Feb 6.9 21:08:15 10° WNW 21:11:16 14° NNW 21:14:15 10° N visible
01 Mar7.102:37:46ESE02:37:46ESE02:24:43NNWvisible
01 Mar 5.9 04:19:53 17° S 04:19:53 17° S 04:21:08 10° S visible
01 Mar 5.1 19:06:56 10° SW 19:12:29 49° NW 19:18:00 10° NNE visible
01 Mar 6.9 20:55:06 10° WNW 20:58:07 14° NNW 21:01:09 10° N visible
02 Mar 5.1 18:53:49 10° SW 18:59:22 50° NW 19:04:54 10° NNE visible
02 Mar 6.9 20:41:56 10° WNW 20:44:59 14° NNW 20:48:03 10° N visible
03 Mar 5.1 18:40:42 10° SW 18:46:14 51° NW 18:51:47 10° NNE visible
03 Mar 6.9 20:28:46 10° WNW 20:31:52 15° NNW 20:34:57 10° N visible
04 Mar 5.1 18:27:34 10° SW 18:33:08 51° NW 18:38:40 10° NNE visible
04 Mar 6.8 20:15:36 10° WNW 20:18:43 15° NNW 20:21:51 10° N visible
04 Mar 7.1 23:51:14 10° N 23:51:22 10° N 23:51:22 10° N visible
